Starlink 5836

operational
NORAD ID: 56386 Int'l Des: 2023-061 Owner: SPXS Country: US Constellation: starlink
LEOCIRCULAR

Starlink 5836について

説明を読み込み中...

リアルタイム位置

3D地球を読み込み中...

次回通過

高度履歴

Altitude vs Time

uPlot chart will show altitude changes over time

軌道要素

1 56386U 23061N 25305.35710678 .00000700 00000-0 66881-4 0 9992
2 56386 43.0034 174.4794 0001266 268.4773 91.5924 15.02535276137458
Epoch: Nov 1, 2025 • Age: 18 hours

現在のステータス

高度 558.4 km
速度 7.59 km/s
衛星直下点 13.42°N, 110.49°E
打ち上げ日 May 4, 2023
運用期間 2.4 years
タイプ internet

技術仕様

分類 Payload
質量 305.00 kg
乾燥質量 290.00 kg
総質量 305.00 kg
長さ 0.20 m
直径 2.80 m
スパン 9.00 m
形状 Box + pan
製造者 SPXS
バスタイプ Starlink
フェーズステータス In Orbit
所有者/国 SPXS/US

大規模コンステレーション

Loading constellations...